Aérodrome :
LOGIN :

S'inscrire | Disclaimer

   EN    FR    IT 

 










Légende :    VFR   VFR Marginal   IFR   IFR Intensif   IFR Très Intensif
Visi : 
Plafond : 
>= 8 km
>= 3000ft
5 à 8 km
1000 à 3000 ft
1500m à 5 km
500 à 1000 ft
800 à 1500m
200 à 500 ft
< 800m
< 200 ft
Symboles :   Orages  Brouillard  Fortes neiges  Fortes précipitations  Vent > 20 kt
SIGMETs :   Divers  Orages  Givrage  Turbulence  Onde Orograph.  Cendres Volcan.







- Altitude de l'aérodrome : 277 ft
- Code IATA : JER
- Voir les cartes d'approche


EGJJ - Jersey

DERNIER METAR :
  • 242020Z AUTO 24011KT 9999 -DZ BKN015/// OVC017/// 11/10 Q1014

METARs EXPIRÉS :
  • 241950Z 24011KT 9999 FEW015 BKN019 11/10 Q1014
  • 241920Z 24012KT 9999 FEW015 BKN021 11/10 Q1014
  • 241850Z 25011KT 9999 FEW015 BKN023 11/10 Q1014
  • 241820Z 25009KT 9999 FEW015 BKN024 12/10 Q1014
  • 241750Z 25008KT 9999 BKN024 12/10 Q1015

TAF TAF EGJJ
Valide du 24 à 18h jusqu'au 25 à 03h UTC


241703Z 2418/2503 25012G25KT 9999 FEW008 BKN030
BECMG 2422/2424 4000 -RADZ BR BKN004
TEMPO 2422/2502 0300 FG BKN000
BECMG 2502/2503 9999 NSW SCT010
ATIS : +44 1534 498 073
Pas de NOTAMs connus pour ce terrain.



MET'MAP, la Météo Aéronautique d'un coup d'oeil ! - Copyright ORBIFLY Décembre 2007 - Disclaimer

ORBIFLY MET'MAP TEAM :

Programmation & Développement : Alexandra Zaïnal
Conception & Développement : Baudouin d'Aumeries
Co-Programmation & Développement : Marc-Olivier Méhu
Soutien technique & logistique : Manuel Goepfert

Contact : metmap@orbifly.com




SOURCES & CREDITS :

   NOAA